Location: Wingville
(42.9917°N, 90.4915°W)
Time: 14:16:05
(UTC+00:00)

BEESAT - Visible Passes

Search period start: 25 June 2022 00:00
Search period end: 05 July 2022 00:00
Orbit: 698 x 708 km, 98.6° (Epoch: 24 June)

Date Brightness Start Highest point End Pass type
(mag) Time Alt. Az. Time Alt. Az. Time Alt. Az.
25 Jun ? 02:45:05 10° N 02:49:49 68° WNW 02:54:32 10° SSW visible
26 Jun ? 03:28:35 10° N 03:32:33 27° WNW 03:36:30 10° WSW visible
27 Jun ? 02:33:15 10° NNE 02:38:03 88° WNW 02:42:48 10° SSW visible
27 Jun ? 04:13:31 10° NW 04:15:00 11° WNW 04:16:29 10° WNW visible
28 Jun ? 03:16:33 10° N 03:20:51 34° WNW 03:25:08 10° SW visible
29 Jun ? 02:21:28 10° NNE 02:26:14 71° ESE 02:31:00 10° S visible
29 Jun ? 04:00:47 10° NNW 04:03:22 15° WNW 04:05:57 10° W visible
30 Jun ? 03:04:35 10° N 03:09:07 44° WNW 03:13:38 10° SW visible
01 Jul ? 03:48:27 10° NNW 03:51:43 19° WNW 03:54:59 10° WSW visible
02 Jul ? 02:52:40 10° N 02:57:22 58° WNW 03:02:02 10° SSW visible
03 Jul ? 03:36:16 10° NNW 03:40:03 24° WNW 03:43:49 10° WSW visible
04 Jul ? 02:40:48 10° N 02:45:35 77° WNW 02:50:21 10° SSW visible
